sat.trackr.live / text

‹ back to catalog

STARLINK-11446 [DTC]

NORAD 62416 · 2024-249H

PAYLOAD ACTIVE UNKNOWN

§ Identity

Operator
Country
US
Launch date
2024-12-23
Launch site
AFETR
Launch vehicle
Mass (kg)
RCS (m²)

Purposes: comms

External: N2YO · Heavens-Above · Gunter

§ Orbital elements

Epoch: 2026-09-20T22:36:25.214400Z

Period
91.66 min
Inclination
43.0001°
Eccentricity
0.0001998
Mean motion
15.71000915 rev/d
Perigee alt
354.7 km
Apogee alt
357.4 km
Semi-major
6,734.2 km
B*
9.9169e-4
RAAN
70.2992°
Arg perigee
280.8055°
Mean anomaly
79.2588°
Rev number
10,019

§ Raw data

STARLINK-11446 [DTC]1 62416U 24249H   26263.94195850  .00129681  00000+0  99169-3 0  99932 62416  43.0001  70.2992 0001998 280.8055  79.2588 15.71000915100192

JSON: /api/v1/satellites/62416 · /tle

For live sub-satellite position, see the globe view (requires WebGL).

§ Visibility from observer

Set your observer location to see the next 7 days of passes ≥ 10°. The values pass through the URL so the page stays shareable.

No JS? Fill the form by hand. The geolocation button needs JavaScript.